sat.trackr.live / text

‹ back to catalog

STARLINK-5245

NORAD 54168 · 2022-141M

PAYLOAD ACTIVE UNKNOWN

§ Identity

Operator
Country
US
Launch date
2022-10-28
Launch site
AFWTR
Launch vehicle
Mass (kg)
RCS (m²)

Purposes: comms

External: N2YO · Heavens-Above · Gunter

§ Orbital elements

Epoch: 2026-05-25T01:07:16.701312Z

Period
95.44 min
Inclination
53.2132°
Eccentricity
0.0001255
Mean motion
15.08836979 rev/d
Perigee alt
538.9 km
Apogee alt
540.6 km
Semi-major
6,917.9 km
B*
6.0107e-6
RAAN
21.4313°
Arg perigee
94.8313°
Mean anomaly
265.2823°
Rev number
19,738

§ Raw data

STARLINK-52451 54168U 22141M   26145.04672108 -.00000192  00000+0  60107-5 0  99912 54168  53.2132  21.4313 0001255  94.8313 265.2823 15.08836979197389

JSON: /api/v1/satellites/54168 · /tle

For live sub-satellite position, see the globe view (requires WebGL).

§ Visibility from observer

Set your observer location to see the next 7 days of passes ≥ 10°. The values pass through the URL so the page stays shareable.

No JS? Fill the form by hand. The geolocation button needs JavaScript.